Date,TemperatureHighF,TemperatureAvgF,TemperatureLowF,DewpointHighF,DewpointAvgF,DewpointLowF,HumidityHigh,HumidityAvg,HumidityLow,PressureMaxIn,PressureMinIn,WindSpeedMaxMPH,WindSpeedAvgMPH,GustSpeedMaxMPH,PrecipitationSumIn
2013-1-1,55.0,48.5,40.5,55.0,44.0,33.6,100,85,73,30.30,30.00,10,3,18,0.19
2013-1-2,44.3,39.0,34.9,33.9,29.2,26.9,78,68,56,30.40,30.29,8,3,14,0.00
2013-1-3,46.2,40.4,31.8,31.9,29.4,27.3,84,66,53,30.51,30.37,9,2,12,0.00
2013-1-4,44.7,40.5,37.1,39.8,36.1,30.1,95,85,57,30.58,30.44,6,1,12,0.33
2013-1-5,57.4,45.0,37.0,43.0,39.1,34.3,100,81,57,30.44,30.27,4,0,6,0.01
2013-1-6,59.3,44.5,33.8,37.5,34.4,31.2,95,71,39,30.45,30.33,7,2,12,0.00
2013-1-7,53.8,43.3,30.3,42.3,34.0,26.3,86,71,53,30.38,30.11,4,1,10,0.00
2013-1-8,53.5,50.0,46.5,53.5,48.9,42.3,100,96,74,30.11,29.91,9,1,15,0.40
2013-1-9,59.8,56.0,48.5,57.4,55.0,47.4,100,96,89,30.04,29.86,10,2,14,1.72
2013-1-10,67.2,54.9,46.7,50.5,45.9,42.9,100,74,46,30.09,30.00,12,3,17,0.01
2013-1-11,71.3,59.4,44.5,66.3,53.8,40.6,95,82,67,30.05,29.84,15,3,21,0.01
2013-1-12,74.8,67.2,47.5,69.1,62.5,35.9,100,86,56,29.91,29.68,15,4,22,0.02
2013-1-13,52.4,44.7,38.5,35.8,29.8,24.7,70,56,45,30.23,29.91,13,5,23,0.00
2013-1-14,48.7,40.7,35.1,31.8,27.6,22.4,67,59,50,30.31,30.14,12,5,17,0.00
2013-1-15,41.5,37.1,35.0,35.0,32.2,25.5,94,83,64,30.31,30.15,14,4,20,0.04
2013-1-16,53.3,39.3,29.2,26.6,23.0,18.9,70,54,28,30.41,30.23,13,3,18,0.00
2013-1-17,65.5,47.7,32.5,39.5,32.1,22.6,74,57,34,30.53,30.34,10,2,13,0.00
2013-1-18,63.9,47.8,33.3,38.1,33.8,28.9,85,61,35,30.56,30.36,11,1,15,0.00
2013-1-19,67.8,51.2,36.1,47.0,41.2,33.2,94,71,45,30.37,30.19,12,2,18,0.00
2013-1-20,72.0,54.6,37.8,53.0,44.6,35.7,93,72,42,30.28,30.12,10,1,15,0.00
2013-1-21,73.8,57.4,43.3,54.1,47.1,40.9,100,70,48,30.28,30.16,5,1,10,0.00
2013-1-22,71.7,56.6,42.1,52.4,45.5,37.0,86,67,50,30.35,30.22,11,1,20,0.00
2013-1-23,74.0,60.2,50.7,58.5,53.7,47.6,100,81,56,30.37,30.22,13,2,20,0.00
2013-1-24,76.7,66.1,56.6,63.3,59.4,54.5,94,80,60,30.27,30.11,13,4,20,0.00
2013-1-25,78.2,66.4,54.0,62.3,58.9,47.1,93,78,56,30.18,30.04,16,5,24,0.00
2013-1-26,67.3,55.7,50.3,58.7,51.9,47.0,95,87,73,30.22,30.09,4,1,7,0.00
2013-1-27,77.6,66.3,53.6,65.3,61.4,51.4,100,85,64,30.14,29.97,15,4,23,0.00
2013-1-28,75.7,70.8,67.6,66.7,65.4,64.3,92,83,71,30.06,29.89,17,6,27,0.00
2013-1-29,83.7,70.2,56.8,66.6,57.5,25.7,91,67,30,29.90,29.52,24,7,31,0.02
2013-1-30,58.9,50.8,36.5,28.8,22.6,16.8,60,34,22,30.26,29.83,21,6,35,0.00
2013-1-31,67.6,51.3,30.8,26.1,22.9,18.3,70,36,19,30.34,30.21,16,4,20,0.00
2013-2-1,70.5,56.2,43.4,42.0,35.6,26.4,72,48,30,30.39,30.20,13,2,20,0.00
2013-2-2,77.7,60.0,41.4,53.9,45.1,37.2,86,60,38,30.33,30.18,10,1,14,0.00
2013-2-3,72.5,59.6,44.5,48.1,38.2,28.8,70,47,22,30.37,30.06,8,1,14,0.00
2013-2-4,73.7,61.4,55.5,59.8,55.0,48.3,93,80,58,30.05,29.82,12,3,20,0.00
2013-2-5,82.2,64.0,48.9,54.4,49.3,43.7,94,63,29,30.01,29.89,7,0,12,0.00
2013-2-6,75.7,64.1,57.9,61.2,57.4,50.4,96,80,54,30.02,29.86,5,1,10,0.05
2013-2-7,82.9,66.8,57.9,62.6,56.1,43.5,92,71,35,30.11,29.86,9,3,21,0.00
2013-2-8,68.8,58.3,48.3,45.9,37.0,30.3,69,47,25,30.26,30.11,11,2,20,0.00
2013-2-9,68.0,58.0,52.2,65.6,53.6,37.0,94,86,49,30.13,29.82,10,1,17,0.03
2013-2-10,68.0,62.2,54.1,66.1,47.2,35.0,95,62,33,30.04,29.76,13,3,26,0.14
2013-2-11,58.2,53.1,49.5,49.4,46.3,42.6,94,78,56,30.13,30.00,9,3,16,0.37
2013-2-12,72.0,57.6,49.5,55.9,47.3,30.4,100,74,29,30.09,29.84,16,3,24,0.01
2013-2-13,64.1,50.2,39.6,39.3,34.1,30.3,75,56,32,30.19,30.06,13,3,24,0.00
2013-2-14,70.4,52.5,33.8,40.3,34.8,29.9,86,56,26,30.17,30.03,10,2,15,0.00
2013-2-15,60.9,49.6,39.1,39.4,34.5,22.1,80,57,36,30.43,30.11,11,3,16,0.00
2013-2-16,68.2,49.6,33.4,31.8,27.0,23.6,67,44,24,30.50,30.25,10,2,16,0.00
2013-2-17,69.5,54.9,36.6,50.3,36.3,27.7,73,52,30,30.25,30.00,14,5,26,0.00
2013-2-18,81.8,67.3,58.2,59.1,47.9,30.4,80,55,19,30.11,29.84,18,6,31,0.00
2013-2-19,67.5,56.7,44.3,34.2,31.5,26.5,61,40,22,30.30,30.11,11,2,15,0.00
2013-2-20,62.7,56.1,51.8,62.6,46.9,33.8,100,73,44,30.16,29.69,4,1,10,0.04
2013-2-21,78.7,67.0,53.1,65.8,45.9,28.1,100,54,18,29.88,29.60,20,5,29,0.01
2013-2-22,56.5,49.8,43.9,39.2,34.6,30.1,73,56,44,30.09,29.88,9,4,18,0.00
2013-2-23,72.6,53.5,40.4,42.5,34.3,28.1,67,50,30,30.11,29.90,9,2,13,0.00
2013-2-24,72.6,56.6,37.3,57.5,46.0,32.3,90,69,50,29.96,29.62,13,2,20,0.00
2013-2-25,62.8,55.7,46.5,58.1,37.1,22.9,96,54,22,29.87,29.57,26,11,40,0.01
2013-2-26,68.8,52.5,40.1,32.0,28.9,26.9,59,42,25,30.00,29.87,14,4,22,0.00
2013-2-27,63.7,53.4,44.3,34.0,28.3,20.9,57,39,24,30.27,29.90,20,4,28,0.00
2013-2-28,63.1,49.6,40.8,28.7,26.4,21.8,56,42,25,30.38,30.22,11,3,20,0.00
2013-3-1,69.6,51.3,34.0,31.2,26.9,21.4,69,42,18,30.34,30.15,10,2,20,0.00
2013-3-2,63.6,49.7,39.8,30.2,27.8,23.4,61,44,27,30.47,30.30,13,3,21,0.00
2013-3-3,73.6,55.6,35.3,42.9,32.5,23.5,66,44,25,30.31,29.95,15,6,22,0.00
2013-3-4,85.4,66.5,52.3,55.1,48.0,41.4,81,55,28,29.96,29.70,14,6,20,0.00
2013-3-5,66.5,57.2,47.1,55.4,28.8,14.9,86,39,16,30.39,29.78,16,6,28,0.00
2013-3-6,62.7,50.8,40.0,27.3,21.4,16.7,46,32,21,30.50,30.25,8,2,12,0.00
2013-3-7,74.2,56.5,39.7,52.1,41.4,25.6,69,58,40,30.29,30.11,11,2,17,0.00
2013-3-8,67.5,60.4,55.1,62.9,56.0,49.6,100,86,70,30.17,30.02,9,1,14,0.13
2013-3-9,72.0,65.8,60.9,65.1,61.9,57.4,95,87,76,30.05,29.69,14,5,25,0.03
2013-3-10,66.3,59.8,49.9,63.0,43.7,31.0,96,59,35,30.16,29.69,16,4,25,0.77
2013-3-11,68.0,51.1,36.9,33.6,28.9,20.4,77,47,21,30.23,30.03,13,2,18,0.00
2013-3-12,78.0,57.8,37.5,42.6,34.4,27.1,75,46,20,30.28,30.09,17,3,22,0.00
2013-3-13,77.0,63.3,49.0,41.4,37.6,32.6,62,40,26,30.47,30.28,9,1,13,0.00
2013-3-14,77.3,62.4,47.2,53.1,46.3,40.9,85,58,32,30.41,30.24,13,4,22,0.00
2013-3-15,80.2,65.0,49.9,54.6,47.7,41.8,91,59,27,30.27,30.01,16,4,26,0.00
2013-3-16,83.2,67.4,54.6,61.1,56.4,51.5,94,71,37,30.03,29.75,16,6,28,0.00
2013-3-17,83.2,71.2,63.8,64.2,61.3,59.4,89,73,47,29.83,29.66,13,4,24,0.00
2013-3-18,89.3,74.0,64.0,65.2,56.5,45.9,89,60,27,29.96,29.72,8,3,16,0.00
2013-3-19,82.4,66.7,52.4,62.9,52.3,43.8,73,60,48,30.02,29.86,12,2,18,0.00
2013-3-20,70.2,59.1,52.4,54.0,47.5,37.9,91,68,33,30.27,30.01,13,3,21,0.33
2013-3-21,75.0,62.7,51.7,59.9,51.3,40.1,84,67,55,30.06,29.63,15,4,23,0.00
2013-3-22,85.5,70.1,55.5,66.8,61.5,47.1,96,76,50,29.80,29.64,12,3,20,0.00
2013-3-23,76.8,60.6,51.6,61.1,52.5,45.9,87,75,57,29.82,29.61,9,2,12,0.00
2013-3-24,61.2,52.6,43.0,57.0,33.2,23.6,91,51,28,30.20,29.71,16,5,27,0.00
2013-3-25,58.6,48.1,38.6,25.5,21.7,18.2,49,36,23,30.43,30.20,8,3,14,0.00
2013-3-26,65.5,50.9,33.7,26.7,23.8,19.3,65,37,21,30.54,30.33,6,0,9,0.00
2013-3-27,67.5,54.0,36.0,47.3,36.8,23.4,74,53,38,30.37,30.18,13,2,20,0.00
2013-3-28,72.9,62.3,52.2,57.3,53.2,47.0,85,73,58,30.23,30.14,9,2,17,0.00
2013-3-29,77.3,66.6,56.0,59.8,56.9,54.2,95,73,52,30.20,30.07,11,2,18,0.00
2013-3-30,84.2,71.2,63.4,63.5,61.4,58.3,90,73,47,30.13,29.89,10,3,17,0.00
2013-3-31,78.0,69.7,62.8,66.1,63.0,59.5,90,80,64,29.98,29.85,8,2,13,0.02
2013-4-1,87.5,72.0,59.5,66.5,61.9,56.8,91,72,46,30.07,29.90,8,0,15,0.00
2013-4-2,77.0,66.9,61.9,67.9,63.5,58.1,100,89,73,30.02,29.81,22,1,30,2.45
2013-4-3,60.4,53.0,49.7,57.7,51.3,46.9,100,94,90,30.18,29.81,17,2,26,0.70
2013-4-4,61.7,52.1,47.9,47.0,44.2,39.8,90,75,56,30.28,30.14,13,3,22,0.00
2013-4-5,73.2,55.3,39.1,50.5,44.5,37.3,100,70,43,30.32,30.09,6,1,12,0.00
2013-4-6,80.7,64.6,50.5,59.7,54.6,47.2,94,72,48,30.10,29.87,12,3,21,0.00
2013-4-7,83.1,68.8,61.1,65.4,61.2,58.1,93,78,54,29.94,29.77,8,2,16,0.00
2013-4-8,76.4,70.2,66.9,67.9,64.7,60.8,89,83,71,29.85,29.70,9,1,15,0.00
2013-4-9,88.3,75.4,70.1,72.4,68.3,66.0,89,79,59,29.74,29.61,12,1,17,0.00
2013-4-10,74.7,56.8,44.6,69.9,51.6,41.2,94,83,68,29.99,29.67,15,4,25,0.12
2013-4-11,68.1,54.0,43.9,45.9,41.4,37.8,86,64,42,30.03,29.84,7,2,16,0.05
2013-4-12,83.9,62.6,43.8,53.6,46.9,41.6,93,62,30,30.04,29.87,4,0,12,0.00
2013-4-13,79.2,65.7,50.2,60.3,54.1,48.0,93,68,39,29.98,29.80,4,0,7,0.00
2013-4-14,87.1,70.9,56.4,69.7,62.4,54.1,94,76,51,29.84,29.62,13,2,20,0.00
2013-4-15,90.2,76.8,69.2,71.7,68.0,65.7,92,76,53,29.83,29.70,12,2,21,0.00
2013-4-16,87.0,76.6,68.5,72.4,68.4,64.0,93,77,59,29.92,29.82,8,1,16,0.00
2013-4-17,83.8,76.5,72.9,72.6,70.9,69.0,95,83,66,29.90,29.69,6,1,18,0.00
2013-4-18,75.1,63.0,50.0,72.2,55.2,38.5,94,77,50,30.13,29.68,13,3,23,0.30
2013-4-19,72.3,57.1,44.9,39.1,34.5,29.3,71,45,24,30.33,30.11,11,2,20,0.00
2013-4-20,75.1,58.0,38.6,47.9,38.8,33.9,88,53,27,30.27,30.02,8,1,12,0.00
2013-4-21,80.7,64.0,48.3,59.8,52.9,44.9,90,69,46,30.17,30.02,8,0,13,0.00
2013-4-22,85.7,70.1,55.3,64.2,59.8,53.6,96,72,47,30.14,29.88,12,2,18,0.00
2013-4-23,80.9,67.0,50.2,68.9,59.5,43.7,89,77,54,30.14,29.86,6,2,17,0.00
2013-4-24,63.1,54.3,45.1,43.8,39.6,34.7,80,59,45,30.30,30.15,10,4,16,0.00
2013-4-25,69.5,62.1,55.8,50.6,45.6,41.2,65,55,44,30.36,30.20,5,1,9,0.00
2013-4-26,79.0,69.6,60.1,70.5,63.9,47.3,100,83,54,30.21,30.02,8,1,17,0.02
2013-4-27,84.1,74.1,67.3,71.2,68.3,65.8,96,83,63,30.11,29.93,4,0,12,0.26
2013-4-28,87.8,73.6,61.9,67.7,64.6,61.5,100,77,45,30.06,29.87,8,0,12,0.01
2013-4-29,86.3,71.3,65.0,69.5,65.7,62.0,100,84,53,29.95,29.80,10,1,26,0.11
2013-4-30,85.5,71.9,62.6,70.0,65.4,61.4,100,82,55,29.87,29.74,6,0,12,0.01
2013-5-1,89.4,76.8,67.3,70.8,67.7,64.1,95,75,53,29.95,29.80,6,0,12,0.00
2013-5-2,77.1,57.3,48.1,66.9,49.1,36.5,90,74,59,30.37,29.93,16,4,27,0.04
2013-5-3,72.3,57.1,44.2,39.6,32.7,29.0,65,43,23,30.38,30.12,12,3,20,0.00
2013-5-4,88.5,66.3,47.3,43.7,37.5,31.4,74,38,18,30.12,29.88,14,3,21,0.00
2013-5-5,79.6,65.8,53.4,51.1,43.4,36.7,62,45,32,30.17,29.99,7,1,14,0.00
2013-5-6,76.8,63.7,51.6,52.5,48.6,44.6,79,60,40,30.18,30.02,4,0,7,0.00
2013-5-7,87.4,69.8,50.5,57.5,52.4,46.3,87,58,31,30.11,29.94,8,1,12,0.00
2013-5-8,85.6,73.2,64.0,66.7,63.3,56.6,93,73,53,30.03,29.89,10,2,20,0.00
2013-5-9,77.7,71.7,67.6,71.0,67.2,63.9,93,86,76,29.99,29.87,10,1,16,0.03
2013-5-10,89.2,71.4,62.3,69.6,64.5,60.7,100,81,50,30.07,29.81,14,1,34,2.46
2013-5-11,81.8,71.1,61.3,64.5,59.1,48.9,100,70,40,30.17,30.01,10,2,13,0.00
2013-5-12,81.4,70.7,58.4,58.6,52.6,45.1,76,54,36,30.28,30.14,6,1,10,0.00
2013-5-13,87.8,71.7,53.6,58.2,52.9,44.7,79,55,32,30.29,30.16,8,0,14,0.00
2013-5-14,86.3,73.5,60.6,67.2,62.0,56.6,88,69,46,30.24,30.02,11,2,17,0.00
2013-5-15,86.0,74.6,66.2,72.6,68.2,62.1,94,81,60,30.12,29.85,10,2,25,0.37
2013-5-16,94.0,79.5,70.4,76.1,71.0,68.0,94,77,49,29.90,29.72,17,2,20,0.01
2013-5-17,95.7,82.0,74.8,77.3,72.7,69.3,90,75,51,29.91,29.79,10,1,17,0.00
2013-5-18,95.1,81.4,72.2,72.3,69.0,64.8,89,69,45,29.93,29.83,12,2,22,0.00
2013-5-19,94.2,81.1,72.8,73.3,69.7,67.4,87,70,47,29.87,29.74,11,2,20,0.00
2013-5-20,94.0,81.3,71.8,73.6,70.8,66.9,93,72,49,29.86,29.70,9,1,18,0.00
2013-5-21,89.0,80.1,70.8,75.8,71.4,63.0,89,76,60,29.91,29.70,10,2,15,0.00
2013-5-22,95.3,78.1,61.9,71.7,65.4,59.8,93,68,41,29.95,29.82,5,0,7,0.00
2013-5-23,91.0,79.4,74.1,73.5,70.5,69.0,87,75,53,30.05,29.88,8,0,13,0.00
2013-5-24,83.1,72.8,67.0,72.7,68.7,64.9,94,87,70,30.15,30.02,12,0,20,1.31
2013-5-25,81.8,74.1,68.2,72.9,69.9,66.1,95,87,65,30.19,30.07,4,0,10,0.63
2013-5-26,85.8,77.1,71.4,73.3,69.9,66.3,95,79,63,30.12,30.00,10,1,18,0.32
2013-5-27,89.2,77.9,69.5,72.3,68.9,66.0,92,75,53,30.06,29.86,10,2,23,0.00
2013-5-28,90.2,79.5,72.5,71.3,69.3,67.9,87,72,52,29.93,29.78,12,1,16,0.00
2013-5-29,87.0,78.2,72.8,72.7,70.0,68.3,88,77,59,29.90,29.74,9,2,20,0.00
2013-5-30,90.7,79.2,73.8,73.2,70.9,69.4,89,77,55,29.87,29.78,12,2,20,0.00
2013-5-31,91.9,81.0,75.8,74.9,71.9,70.4,86,75,54,29.91,29.76,11,3,18,0.00
2013-6-2,86.7,79.4,72.1,64.6,62.5,57.9,72,57,39,29.98,29.93,4,0,6,0.07
2013-6-3,95.1,78.1,63.9,69.4,63.8,59.7,87,65,36,30.01,29.84,5,0,9,0.00
2013-6-4,95.7,81.0,68.8,73.2,68.3,64.5,95,68,40,29.93,29.80,8,1,12,0.00
2013-6-5,95.8,79.8,66.8,72.5,68.2,64.3,94,70,43,29.91,29.75,9,1,16,0.00
2013-6-6,98.9,81.7,70.4,74.2,69.4,64.5,91,69,41,29.95,29.77,10,1,14,0.00
2013-6-7,87.1,77.1,70.1,66.1,61.9,56.1,82,61,38,30.02,29.89,5,1,17,0.00
2013-6-8,91.3,77.7,62.7,71.4,64.4,57.3,84,65,48,29.97,29.80,8,1,13,0.00
2013-6-9,90.3,80.7,70.3,73.7,71.5,65.5,91,75,53,30.00,29.85,8,0,23,0.00
2013-6-10,98.0,82.6,70.1,74.8,70.5,66.5,95,70,41,30.01,29.91,7,1,12,0.00
2013-6-11,93.5,80.7,72.8,72.4,69.9,65.4,92,71,47,30.05,29.97,11,1,20,0.00
2013-6-12,94.8,82.7,73.1,74.4,71.0,67.9,91,70,47,30.07,29.96,10,2,14,0.00
2013-6-13,96.2,80.8,75.0,75.2,70.8,64.5,91,73,47,30.08,29.95,13,2,20,0.00
2013-6-14,90.2,81.5,73.4,74.2,71.9,69.4,90,74,55,30.02,29.90,6,1,12,0.00
2013-6-15,93.5,82.8,76.4,75.2,72.9,70.3,90,73,53,30.02,29.90,5,1,9,0.00
2013-6-16,96.8,84.6,74.7,72.7,70.6,67.5,90,65,39,30.04,29.89,10,2,17,0.00
2013-6-17,97.5,85.4,76.1,72.5,70.4,65.3,87,64,36,30.02,29.85,10,2,16,0.00
2013-6-18,96.2,83.5,71.1,71.7,68.6,62.8,86,63,36,30.04,29.88,6,1,12,0.00
2013-6-19,99.2,84.7,74.4,72.4,70.1,66.7,90,65,37,29.98,29.89,10,2,16,0.00
2013-6-20,98.8,84.5,73.7,72.1,69.1,64.6,90,63,36,30.07,29.95,10,2,17,0.00
2013-6-21,98.5,85.1,75.0,72.6,68.4,61.9,90,61,32,30.10,29.96,14,2,20,0.00
2013-6-22,98.7,85.5,75.8,72.4,68.8,64.3,86,61,35,30.06,29.89,12,2,16,0.00
2013-6-23,97.2,84.0,75.7,72.4,68.2,60.2,87,62,34,30.00,29.89,13,2,20,0.00
2013-6-24,97.9,84.6,74.4,72.8,69.8,65.5,90,64,37,30.04,29.89,14,2,18,0.00
2013-6-25,99.0,86.2,76.2,72.8,68.6,64.1,87,59,34,30.01,29.86,12,3,24,0.00
2013-6-26,101.4,87.2,76.3,72.3,70.0,66.3,83,59,33,29.99,29.87,11,2,18,0.00
2013-6-27,104.4,88.0,76.3,73.7,68.3,60.6,84,57,27,30.04,29.89,12,2,17,0.00
2013-6-28,106.6,90.3,74.9,73.0,68.5,64.0,87,53,28,30.01,29.79,7,1,12,0.00
2013-6-29,107.0,92.8,77.4,73.1,65.7,60.0,71,44,22,29.86,29.73,6,1,10,0.00
2013-6-30,99.8,84.4,70.6,72.5,67.3,60.8,92,60,33,29.95,29.80,8,1,13,0.44
2013-7-1,90.7,82.4,74.5,67.2,57.9,55.5,59,44,32,30.01,29.90,8,1,16,0.00
2013-7-2,94.8,79.8,65.7,60.9,55.2,49.0,69,46,25,30.09,29.96,11,1,15,0.00
2013-7-3,95.2,80.8,67.5,61.8,54.3,48.4,65,43,24,30.04,29.90,4,0,9,0.00
2013-7-4,96.4,82.2,67.2,66.9,60.7,56.2,81,52,27,30.01,29.88,6,0,12,0.00
2013-7-5,99.9,83.8,70.1,69.3,63.9,59.1,82,55,28,30.00,29.83,7,0,10,0.00
2013-7-6,99.3,85.0,71.1,71.1,66.8,61.6,83,58,30,29.95,29.81,4,0,9,0.00
2013-7-7,100.7,83.7,73.3,73.4,70.6,66.0,86,67,36,29.99,29.86,5,0,12,0.10
2013-7-8,88.7,80.3,74.7,76.9,72.5,65.4,94,78,47,30.12,29.98,8,1,14,0.07
2013-7-9,100.4,85.6,75.4,73.9,71.7,67.3,92,67,37,30.16,29.99,6,1,13,0.00
2013-7-10,100.8,86.1,73.8,73.0,70.1,65.7,89,62,35,30.11,29.91,9,1,13,0.00
2013-7-11,100.5,87.3,74.0,73.1,68.1,62.3,87,57,31,30.02,29.86,10,2,14,0.00
2013-7-12,102.1,87.5,74.8,71.3,67.6,63.2,85,55,31,29.98,29.85,7,1,12,0.00
2013-7-13,104.6,89.9,74.9,69.9,65.5,60.6,74,48,26,29.98,29.81,5,0,10,0.00
2013-7-14,94.0,83.3,76.3,70.2,66.4,63.0,71,58,40,29.92,29.85,11,1,16,0.00
2013-7-15,78.7,72.5,69.9,73.6,69.5,65.9,100,91,71,30.05,29.90,9,0,13,0.73
2013-7-16,93.6,78.7,69.9,75.5,70.8,67.4,100,80,46,30.15,30.03,5,0,9,0.09
2013-7-17,87.7,77.0,71.8,74.0,71.6,69.9,96,84,61,30.19,30.10,8,1,13,0.63
2013-7-18,96.3,80.7,71.5,75.8,71.4,67.2,100,76,44,30.20,30.02,11,1,17,0.00
2013-7-19,97.6,81.9,71.4,73.9,70.4,67.2,95,71,39,30.09,29.91,12,1,12,0.00
2013-7-20,96.3,81.0,71.7,74.4,71.2,68.0,94,74,44,30.01,29.86,8,1,14,0.02
2013-7-21,94.2,80.5,72.4,79.1,73.7,70.8,96,81,51,29.98,29.90,17,1,26,0.17
2013-7-22,98.0,84.8,76.3,76.0,73.0,68.7,94,71,40,30.01,29.89,9,2,18,0.00
2013-7-23,98.1,85.3,76.3,74.7,72.2,67.9,89,68,41,30.02,29.86,11,3,18,0.00
2013-7-24,95.4,83.8,74.7,75.4,72.9,69.9,92,72,45,30.02,29.87,8,2,15,0.00
2013-7-25,100.8,86.1,73.9,73.9,71.2,65.9,94,65,35,30.03,29.94,9,1,12,0.00
2013-7-26,98.5,85.6,74.8,76.4,72.8,69.5,94,68,43,30.03,29.86,10,3,15,0.02
2013-7-27,87.6,78.9,72.1,76.5,72.2,68.7,100,81,61,30.01,29.90,7,1,11,0.57
2013-7-28,98.2,84.5,74.1,76.2,71.8,69.0,87,68,45,29.97,29.84,7,1,13,0.00
2013-7-29,100.5,86.2,76.5,74.4,70.9,65.0,88,64,35,30.04,29.93,14,3,23,0.00
2013-7-30,101.2,85.6,75.4,74.0,71.4,64.9,91,66,32,30.10,29.96,12,3,16,0.00
2013-7-31,104.7,85.8,73.6,72.7,70.0,62.9,93,65,29,30.11,29.92,11,2,14,0.00
2013-8-1,104.5,89.3,74.7,75.0,70.4,67.7,87,57,35,30.04,29.88,6,1,10,0.00
2013-8-2,102.9,87.6,74.9,72.4,69.3,66.8,80,57,34,29.99,29.86,9,2,16,0.00
2013-8-3,102.7,87.4,75.5,73.6,71.4,68.1,92,63,36,30.03,29.91,11,2,17,0.00
2013-8-4,101.8,87.0,76.5,75.1,72.9,70.1,90,66,38,30.09,29.91,8,1,15,0.00
2013-8-5,102.5,87.1,74.4,73.5,70.5,66.0,91,62,32,30.04,29.86,10,2,18,0.00
2013-8-6,104.0,87.9,74.4,73.8,71.1,64.1,90,62,29,29.96,29.79,11,2,17,0.00
2013-8-7,106.5,88.6,77.8,74.3,71.1,62.3,84,61,26,29.93,29.78,12,3,20,0.00
2013-8-8,105.4,88.9,77.6,73.1,69.3,59.8,83,57,25,29.91,29.76,11,2,17,0.00
2013-8-9,106.5,88.0,74.3,73.4,67.5,59.2,90,57,25,29.97,29.84,6,1,12,0.00
2013-8-10,103.3,88.4,78.0,74.2,70.4,66.5,76,57,32,30.05,29.91,6,1,17,0.00
2013-8-11,102.7,85.6,76.8,74.3,71.8,68.4,85,66,35,30.08,29.94,4,0,14,0.00
2013-8-12,100.5,86.5,74.1,72.4,70.2,67.3,90,62,36,30.08,29.93,11,1,17,0.00
2013-8-13,103.6,89.0,76.6,73.4,69.7,63.1,88,57,29,30.05,29.87,9,2,16,0.00
2013-8-14,103.8,86.1,76.6,72.6,70.5,67.3,83,62,32,30.00,29.87,8,2,13,0.00
2013-8-15,99.3,82.9,72.5,76.8,71.9,69.0,95,72,44,30.03,29.90,16,1,25,0.27
2013-8-16,97.0,82.8,72.1,77.2,71.0,64.5,100,71,38,30.06,29.91,9,0,14,0.01
2013-8-17,94.5,82.6,72.6,70.3,66.6,60.9,89,62,37,30.06,29.93,5,1,7,0.00
2013-8-18,98.0,82.7,67.8,70.6,62.6,57.9,79,53,33,30.06,29.96,4,0,7,0.00
2013-8-19,100.2,83.0,69.1,68.1,64.8,60.8,84,57,34,30.07,29.91,10,0,13,0.00
2013-8-20,96.5,82.4,70.4,71.8,67.9,64.0,86,64,35,30.04,29.94,3,0,12,0.00
2013-8-21,96.5,82.3,72.5,74.1,70.5,68.0,90,70,42,30.09,29.96,7,0,12,0.00
2013-8-22,98.9,85.1,72.5,74.5,71.2,69.0,91,66,42,30.10,29.91,7,0,18,0.00
2013-8-23,100.5,86.0,73.3,73.9,70.9,67.7,92,64,37,30.03,29.88,5,0,7,0.00
2013-8-24,99.8,86.0,76.6,77.5,71.1,68.7,91,64,39,30.05,29.91,7,1,10,0.05
2013-8-25,94.7,83.7,74.6,73.0,70.9,68.5,88,67,47,30.09,30.00,8,1,12,0.00
2013-8-26,88.9,79.1,71.8,73.2,71.2,69.7,96,78,55,30.14,30.03,4,1,6,0.08
2013-8-27,87.2,77.2,71.2,74.8,70.4,62.9,100,82,49,30.14,30.04,6,0,8,0.01
2013-8-28,97.8,80.8,70.6,74.4,70.9,68.8,96,75,41,30.13,30.01,5,0,9,0.00
2013-8-29,103.2,87.1,73.9,71.8,69.2,66.8,87,59,34,30.10,29.94,7,1,10,0.00
2013-8-30,104.4,89.2,74.4,70.8,67.4,64.3,77,51,29,30.02,29.85,5,1,12,0.00
2013-8-31,103.1,88.1,74.1,71.8,69.9,68.4,83,57,35,29.94,29.80,10,1,14,0.00
2013-9-1,100.5,86.6,73.3,73.1,69.0,64.4,88,59,35,29.92,29.79,8,1,12,0.00
2013-9-2,103.0,87.4,74.8,74.4,70.2,65.2,91,60,32,29.98,29.81,7,1,12,0.00
2013-9-3,104.3,87.9,73.5,70.4,67.6,63.4,83,54,31,30.00,29.85,5,0,9,0.00
2013-9-4,103.0,85.4,70.2,72.4,69.5,65.7,92,63,33,30.04,29.91,8,1,14,1.07
2013-9-5,98.8,81.8,71.2,74.4,71.2,69.2,95,73,43,30.11,29.98,5,0,10,0.00
2013-9-6,98.4,84.3,73.5,74.5,71.9,68.5,93,69,40,30.10,29.94,3,0,6,0.00
2013-9-7,98.3,80.5,73.3,74.5,72.0,68.7,95,78,41,30.05,29.89,5,0,12,0.09
2013-9-8,92.3,79.1,71.5,75.7,72.0,70.0,100,80,54,30.00,29.88,7,0,12,0.01
2013-9-9,91.3,76.8,70.0,74.9,70.8,68.5,96,83,52,30.00,29.92,6,0,13,0.09
2013-9-10,92.8,78.0,70.6,75.1,71.8,69.4,100,83,51,30.08,29.99,3,0,7,0.01
2013-9-11,95.0,81.9,73.4,74.6,71.0,66.5,93,72,41,30.12,29.98,7,0,7,0.00
2013-9-12,97.0,82.3,70.2,73.7,69.8,66.4,95,69,41,30.09,29.92,4,0,10,0.00
2013-9-13,98.8,84.5,72.6,70.1,67.4,64.4,86,59,36,29.98,29.81,3,0,9,0.00
2013-9-14,96.4,83.5,72.2,71.1,68.1,64.6,82,61,43,29.95,29.83,4,1,6,0.00
2013-9-15,94.5,82.4,72.7,74.9,71.2,68.3,92,71,46,30.03,29.92,5,0,6,0.00
2013-9-16,92.5,80.6,75.6,75.2,72.5,70.1,92,77,53,30.06,29.95,8,1,12,0.04
2013-9-17,91.8,80.1,73.2,78.2,72.7,70.2,95,79,56,30.08,29.94,11,0,16,0.10
2013-9-18,96.8,82.7,72.3,74.6,71.4,67.9,95,72,42,30.03,29.88,5,1,13,0.00
2013-9-19,95.5,81.0,75.3,78.0,73.4,71.1,91,78,51,29.96,29.81,6,0,13,0.04
2013-9-20,78.5,74.3,70.6,78.0,72.9,68.7,100,95,87,29.88,29.78,7,1,12,0.88
2013-9-21,83.2,73.4,66.2,69.0,61.5,50.8,95,69,37,29.96,29.85,7,2,12,0.01
2013-9-22,83.8,70.4,57.3,54.9,51.5,47.1,81,54,29,29.94,29.79,5,1,7,0.00
2013-9-23,91.8,73.0,57.3,58.7,54.6,49.5,82,57,26,29.87,29.76,4,0,7,0.00
2013-9-24,97.7,79.2,65.1,66.6,59.7,56.5,78,55,29,29.94,29.83,7,1,12,0.00
2013-9-25,96.9,80.8,67.2,64.1,60.8,58.6,77,53,31,29.91,29.78,7,1,12,0.00
2013-9-26,93.4,79.6,67.4,71.6,63.8,56.3,83,60,37,29.91,29.82,9,2,20,0.00
2013-9-27,90.8,79.9,75.1,77.7,74.3,71.5,93,84,60,29.93,29.83,10,1,17,0.09
2013-9-28,93.1,79.8,75.2,76.4,74.7,72.8,96,86,54,29.99,29.88,10,1,17,1.14
2013-9-29,75.5,69.2,64.4,73.2,67.0,64.4,100,93,76,30.07,29.95,8,1,13,2.70
2013-9-30,89.9,73.8,60.9,65.2,62.0,59.4,96,71,39,29.98,29.83,5,0,6,0.00
2013-10-1,91.5,77.4,65.0,73.1,69.2,60.5,100,78,49,29.95,29.84,9,0,12,0.00
2013-10-2,92.0,80.3,72.8,74.8,72.5,70.5,95,79,54,29.98,29.86,8,1,12,0.00
2013-10-3,92.1,81.0,74.9,73.8,72.1,68.4,94,76,52,29.95,29.83,8,2,15,0.00
2013-10-4,91.0,79.0,71.0,73.0,70.9,68.9,96,78,53,29.94,29.84,13,2,20,0.00
2013-10-5,89.8,75.1,62.6,72.4,64.7,43.3,100,72,49,30.09,29.90,6,1,13,0.00
2013-10-6,81.2,65.1,52.9,55.0,48.4,40.3,95,60,26,30.17,30.06,12,1,18,0.57
2013-10-7,87.0,66.4,51.7,54.7,47.4,43.1,77,55,25,30.20,30.06,5,1,10,0.00
2013-10-8,85.2,67.2,51.8,54.9,51.9,48.6,90,62,33,30.13,30.00,9,0,14,0.00
2013-10-9,84.8,68.1,52.1,63.3,57.0,49.9,92,70,43,30.10,29.97,11,1,14,0.00
2013-10-10,86.4,72.2,59.5,67.4,63.1,57.8,95,75,49,30.07,29.90,9,1,16,0.00
2013-10-11,87.6,77.1,69.7,74.5,71.0,66.1,92,82,62,29.97,29.84,10,1,16,0.01
2013-10-12,91.2,79.8,73.2,75.5,73.1,70.2,100,81,56,30.04,29.91,8,1,13,1.36
2013-10-13,74.4,70.2,65.4,74.4,69.4,65.4,100,97,88,30.18,30.02,14,1,22,4.83
2013-10-14,79.7,73.0,70.5,74.8,71.5,69.2,100,95,81,30.15,29.96,10,0,15,0.26
2013-10-15,85.0,73.8,59.3,72.6,68.6,56.1,100,85,63,30.05,29.90,11,2,17,0.01
2013-10-16,60.1,56.8,53.2,57.0,55.0,52.3,100,94,89,30.13,30.00,6,1,14,1.04
2013-10-17,70.9,60.1,51.1,56.6,51.1,47.4,91,74,47,30.19,30.03,4,1,6,0.00
2013-10-18,72.2,63.4,54.2,64.3,58.4,51.9,93,84,69,30.06,29.92,3,0,4,0.00
2013-10-19,67.4,56.7,47.8,62.9,45.8,38.6,92,69,41,30.25,30.03,9,2,14,0.00
2013-10-20,74.2,57.3,41.9,51.5,46.2,40.2,95,70,40,30.15,29.95,9,1,14,0.00
2013-10-21,81.3,66.3,57.0,68.8,60.5,50.6,95,82,64,30.09,29.93,5,0,12,0.04
2013-10-22,74.3,62.1,52.8,56.0,47.7,40.1,84,63,31,30.20,30.09,5,1,12,0.00
2013-10-23,82.0,63.6,47.8,50.6,45.6,41.3,88,57,25,30.22,30.12,7,1,14,0.00
2013-10-24,83.0,64.3,48.0,54.6,49.2,44.6,89,63,30,30.26,30.15,6,0,12,0.00
2013-10-25,79.7,64.8,51.9,61.9,55.7,48.6,89,74,52,30.36,30.23,3,0,7,0.00
2013-10-26,80.8,68.5,60.2,65.6,61.6,57.1,93,80,59,30.26,30.09,11,1,18,0.00
2013-10-27,72.9,66.3,62.7,65.7,63.3,60.8,100,90,74,30.15,30.04,11,0,13,0.47
2013-10-28,81.8,70.8,64.5,70.1,66.3,62.4,100,87,66,30.13,30.00,8,0,15,0.01
2013-10-29,83.2,74.3,68.3,71.8,68.5,66.2,95,83,64,30.12,29.99,12,1,20,0.00
2013-10-30,83.2,76.1,72.0,75.5,72.6,68.7,100,89,73,30.07,29.82,8,2,18,0.18
2013-10-31,82.2,70.2,54.8,72.6,59.5,42.1,100,75,26,29.93,29.78,15,2,24,4.12
2013-11-1,84.3,64.6,48.4,62.2,49.1,40.8,95,63,26,30.12,29.86,12,2,20,0.01
2013-11-2,73.6,62.2,51.0,45.7,41.0,34.9,78,48,25,30.33,30.12,6,1,12,0.00
2013-11-3,70.8,56.0,42.0,52.0,43.2,38.3,92,66,32,30.27,30.06,6,0,12,0.00
2013-11-4,66.1,61.7,57.9,61.8,57.6,51.9,92,86,78,30.11,30.00,3,0,7,0.05
2013-11-5,80.3,69.6,64.2,68.6,65.7,61.8,95,88,64,30.06,29.94,5,0,12,0.03
2013-11-6,69.6,60.5,50.3,69.6,55.5,42.3,100,84,60,30.38,30.02,11,1,22,0.61
2013-11-7,60.9,52.9,41.9,43.6,38.7,34.8,83,60,39,30.52,30.37,6,1,9,0.00
2013-11-8,67.2,56.6,50.2,47.2,42.2,38.0,76,60,36,30.44,30.21,4,0,7,0.00
2013-11-9,70.2,60.1,52.9,57.4,52.2,44.8,87,76,62,30.24,30.14,6,0,10,0.00
2013-11-10,68.0,62.6,59.0,59.8,56.7,54.1,90,81,67,30.35,30.21,1,0,2,0.00
2013-11-11,76.5,62.5,51.8,59.6,54.0,49.5,92,75,51,30.32,30.19,4,0,7,0.01
2013-11-12,59.4,53.0,43.3,54.5,43.6,23.8,95,72,44,30.68,30.28,7,2,16,0.00
2013-11-13,52.9,42.3,32.1,31.2,26.3,23.1,84,55,32,30.72,30.46,6,1,15,0.00
2013-11-14,61.4,46.6,30.1,49.4,36.9,27.8,92,71,39,30.46,30.09,6,1,14,0.00
2013-11-15,77.1,61.4,47.5,59.8,54.4,46.2,96,80,54,30.10,29.89,10,1,15,0.00
2013-11-16,80.2,70.8,59.5,70.2,66.0,57.6,100,86,68,29.93,29.76,13,3,21,0.00
2013-11-17,91.8,75.5,66.0,71.7,67.4,58.3,94,79,36,29.97,29.80,9,1,14,0.00
2013-11-18,75.5,66.8,59.5,65.2,58.5,50.7,91,75,55,30.15,29.97,3,0,5,0.00
2013-11-19,73.7,61.8,54.7,53.0,46.6,41.5,82,59,38,30.19,30.03,4,0,7,0.00
2013-11-20,71.4,62.6,55.2,64.5,55.1,48.1,96,77,66,30.06,29.92,2,0,6,0.02
2013-11-21,79.5,72.9,65.8,72.5,70.0,64.5,100,91,76,30.08,29.96,9,1,16,0.04
2013-11-22,71.9,41.9,34.4,70.4,40.0,32.1,95,93,82,30.45,30.07,7,3,16,0.42
2013-11-23,41.6,37.5,34.5,38.5,35.3,32.4,95,92,85,30.54,30.42,8,3,16,0.01
2013-11-24,42.8,38.4,33.9,37.4,32.5,28.3,91,80,64,30.56,30.37,7,3,12,0.23
2013-11-25,39.2,36.8,33.8,37.6,35.3,31.6,96,94,88,30.39,30.15,6,1,15,0.82
2013-11-26,53.7,43.1,37.7,38.4,34.0,27.2,89,71,50,30.41,30.17,15,4,26,0.00
2013-11-27,51.9,41.1,32.8,29.6,25.1,19.0,84,55,31,30.55,30.40,7,1,13,0.00
2013-11-28,57.9,40.8,29.8,33.0,28.5,24.1,88,66,29,30.52,30.40,4,0,7,0.00
2013-11-29,63.2,46.9,31.0,50.0,39.9,27.3,92,77,60,30.57,30.40,6,0,9,0.00
2013-11-30,65.5,56.1,47.8,56.9,50.2,44.1,87,81,70,30.42,30.22,6,1,10,0.00
2013-12-1,70.8,62.1,50.9,60.1,56.5,49.4,96,83,68,30.24,29.95,11,2,15,0.00
2013-12-2,81.1,66.5,53.2,58.3,54.5,46.8,95,69,31,29.96,29.69,9,2,13,0.00
2013-12-3,84.8,65.6,47.5,57.1,49.5,45.1,95,62,26,29.74,29.61,9,2,15,0.00
2013-12-4,75.1,64.8,53.4,66.5,60.7,48.0,100,87,58,29.82,29.69,7,2,13,0.00
2013-12-5,66.3,44.6,32.0,66.3,39.1,25.1,100,81,65,30.15,29.81,99,5,112,0.02
2013-12-6,36.9,32.4,28.1,31.9,27.7,20.9,94,83,74,30.51,30.10,10,4,18,0.12
2013-12-7,29.1,26.9,24.8,25.3,20.8,18.0,91,77,71,30.54,30.37,8,3,17,0.00
2013-12-8,47.9,36.0,27.4,38.6,31.5,25.1,93,84,68,30.37,30.09,4,0,6,0.00
2013-12-9,38.6,37.0,34.0,38.6,35.6,30.9,100,95,87,30.45,30.12,8,2,15,0.02
2013-12-10,48.3,36.0,28.1,30.8,25.4,20.4,88,67,41,30.59,30.41,6,2,15,0.00
2013-12-11,56.8,41.8,27.8,34.3,29.9,24.7,89,65,41,30.61,30.39,4,1,7,0.00
2013-12-12,51.4,41.3,32.2,35.0,31.7,27.0,82,69,52,30.65,30.37,3,1,7,0.00
2013-12-13,49.9,44.8,41.3,49.9,40.7,34.2,100,86,70,30.37,29.95,8,1,12,0.14
2013-12-14,50.8,46.6,40.7,50.8,41.1,31.7,100,82,67,30.39,29.92,10,3,20,0.01
2013-12-15,65.8,46.2,31.6,37.0,33.0,28.0,88,62,34,30.47,30.33,5,1,9,0.00
2013-12-16,66.9,46.9,30.0,37.5,33.3,27.3,91,63,33,30.36,30.24,9,2,15,0.00
2013-12-17,73.8,51.5,34.5,43.7,38.0,30.8,88,64,32,30.38,30.26,7,1,10,0.00
2013-12-18,69.2,56.6,36.3,54.5,47.7,33.7,91,73,53,30.33,30.09,9,2,15,0.00
2013-12-19,75.3,63.5,52.3,62.4,57.7,49.1,93,82,61,30.10,29.82,18,5,27,0.00
2013-12-20,72.4,67.9,63.5,67.3,64.4,61.5,94,89,78,29.87,29.65,10,3,21,0.00
2013-12-21,71.7,53.1,44.4,67.3,50.4,42.2,96,91,72,29.88,29.59,11,2,24,0.52
2013-12-22,54.9,44.7,37.9,42.1,37.1,29.6,95,76,50,30.43,29.88,13,3,20,0.00
2013-12-23,54.7,40.8,30.7,33.1,29.5,25.9,83,66,40,30.59,30.43,6,1,10,0.00
2013-12-24,57.0,41.6,27.1,35.7,29.1,24.8,92,66,30,30.59,30.33,8,1,14,0.00
2013-12-25,52.1,45.2,36.3,44.8,40.1,34.1,93,83,69,30.45,30.29,6,0,10,0.00
2013-12-26,54.7,46.5,38.1,41.1,37.6,33.6,84,71,57,30.49,30.37,6,1,12,0.00
2013-12-27,56.4,48.6,43.9,45.2,40.9,39.2,91,76,58,30.50,30.36,5,1,9,0.00
2013-12-28,59.2,48.4,37.0,44.4,39.5,33.9,93,74,46,30.36,30.06,7,2,15,0.00
2013-12-29,64.4,49.1,34.0,52.0,42.9,29.1,93,80,64,30.34,30.06,9,3,17,0.00
2013-12-30,41.7,36.7,33.3,30.0,27.0,22.9,83,68,55,30.47,30.29,10,2,16,0.00
2013-12-31,53.3,41.2,35.3,32.2,29.6,26.2,80,65,41,30.53,30.30,5,0,7,0.00
2014-1-1,62.4,48.8,36.3,51.3,41.4,30.8,93,76,62,30.31,30.05,12,3,18,0.00
2014-1-2,52.1,42.5,33.3,48.2,27.9,23.7,93,58,37,30.51,30.15,11,4,20,0.00